Location: Tel Aviv
(32.0670°N, 34.7670°E)
Time: 03:28:49
(UTC+03:00)

Tiros 1 - Pass Details

Date: 25 January 2022
Orbit: 629 x 663 km, 48.4° (Epoch: 26 May)

Event Time Altitude Azimuth Distance (km) Brightness Sun altitude
Rises 23:27:31 0° 281° (W) 2,990 - -75.5°
Reaches altitude 10° 23:30:43 10° 303° (WNW) 2,078 - -75.8°
Maximum altitude 23:33:41 16° 341° (NNW) 1,707 - -76.0°
Drops below altitude 10° 23:36:39 10° 20° (NNE) 2,074 - -76.2°
Sets 23:39:51 0° 42° (NE) 2,982 - -76.4°
